Baton Rouge, LA

3:35 PM CDT on October 19, 2019 (GMT -0500)
Baton Rouge Metro-Ryan

Weather History for KBTR - August, 2019

Change the Weather History Date:

Wednesday, August 21, 2019

  Actual Average Record
Temperature  
Mean Temperature 83 °F 83 °F  
Max Temperature 92 °F 93 °F 102 °F (1921)
Min Temperature 73 °F 73 °F 63 °F (1940)
Degree Days  
Heating Degree Days 0 0  
Month to date heating degree days 0 0  
Since 1 June heating degree days 0 0  
Since 1 July heating degree days 0 0  
Cooling Degree Days 18 18  
Month to date cooling degree days 426 378  
Year to date cooling degree days 2160 1983  
Since 1 June cooling degree days 1489 1418  
Growing Degree Days 32 (Base 50)    
Moisture  
Dew Point 74 °F    
Average Humidity 75    
Maximum Humidity 94    
Minimum Humidity 56    
Precipitation  
Precipitation 3.56 in 0.20 in 3.47 in (1931)
Month to date precipitation 6.30 4.06  
Year to date precipitation 47.72 39.95  
Snow  
Snow 0.00 in - - ()
Month to date snowfall 0.0  
Since 1 June snowfall 0.0  
Since 1 July snowfall 0.0  
Snow Depth 0.00 in    
Sea Level Pressure  
Sea Level Pressure 30.03 in    
Wind  
Wind Speed 3 mph (SE)    
Max Wind Speed 14 mph    
Max Gust Speed 21 mph    
Visibility 7 miles    
Events Fog , Rain , Thunderstorm    
T = Trace of Precipitation, MM = Missing Value Source: NWS Daily Summary

Daily Weather History Graph

Daily Weather History Graph

Search for Another Location

Airport or City:

Astronomy

Aug. 21, 2019 Rise Set
Actual Time 6:34 AM CDT 7:40 PM CDT
Civil Twilight 6:09 AM CDT 8:05 PM CDT
Nautical Twilight 5:40 AM CDT 8:34 PM CDT
Astronomical Twilight 5:09 AM CDT 9:05 PM CDT
Moon 11:22 PM CDT (8/21) 11:48 AM CDT (8/21)
Length of Visible Light 13h 55m
Length of Day
13h 05m
Waning Gibbous, 69% of the Moon is Illuminated
Aug 21
Waning Gibbous
Aug 23
Last Quarter
Aug 30
New
Sep 5
First Quarter
Sep 13
Full

Hourly Weather History & Observations

Time (CDT) Temp. Heat Index Dew Point Humidity Pressure Visibility Wind Dir Wind Speed Gust Speed Precip Events Conditions
12:53 AM 79.0 °F - 75.0 °F 88% 30.05 in 10.0 mi South 4.6 mph - N/A   Partly Cloudy
1:53 AM 79.0 °F - 75.0 °F 88% 30.04 in 10.0 mi Calm Calm - N/A   Clear
2:53 AM 78.1 °F - 75.0 °F 90% 30.02 in 10.0 mi Calm Calm - N/A   Clear
3:53 AM 78.1 °F - 75.0 °F 90% 30.01 in 10.0 mi South 4.6 mph - N/A   Clear
4:53 AM 78.1 °F - 75.0 °F 90% 30.00 in 10.0 mi Calm Calm - N/A   Clear
5:53 AM 77.0 °F - 73.9 °F 90% 30.01 in 10.0 mi West 4.6 mph - N/A   Clear
6:53 AM 75.9 °F - 73.9 °F 94% 30.03 in 8.0 mi Calm Calm - N/A   Clear
7:53 AM 79.0 °F - 75.9 °F 90% 30.04 in 7.0 mi Calm Calm - N/A   Clear
8:53 AM 82.9 °F 90.8 °F 75.9 °F 79% 30.05 in 10.0 mi Calm Calm - N/A   Partly Cloudy
9:53 AM 84.9 °F 93.3 °F 75.0 °F 72% 30.06 in 10.0 mi SW 6.9 mph - N/A   Partly Cloudy
10:53 AM 88.0 °F 94.7 °F 72.0 °F 59% 30.07 in 10.0 mi Variable 3.5 mph - N/A   Partly Cloudy
11:02 AM 87.8 °F 95.6 °F 73.4 °F 62% 30.08 in 10.0 mi Variable 4.6 mph - N/A   Mostly Cloudy
11:53 AM 89.1 °F 96.0 °F 72.0 °F 57% 30.06 in 10.0 mi WSW 6.9 mph - N/A   Mostly Cloudy
12:32 PM 90.0 °F 96.9 °F 72.0 °F 55% 30.05 in 10.0 mi West 5.8 mph - N/A   Mostly Cloudy
12:53 PM 89.1 °F 98.0 °F 73.9 °F 61% 30.04 in 10.0 mi WNW 6.9 mph - N/A   Scattered Clouds
1:53 PM 91.0 °F 100.4 °F 73.9 °F 57% 30.01 in 10.0 mi NW 8.1 mph - N/A   Partly Cloudy
2:46 PM 90.0 °F 95.4 °F 70.0 °F 52% 29.99 in 10.0 mi Variable 5.8 mph - N/A Thunderstorm Mostly Cloudy
2:53 PM 88.0 °F 93.8 °F 71.1 °F 57% 30.00 in 10.0 mi ENE 4.6 mph - N/A Thunderstorm Mostly Cloudy
3:10 PM 78.1 °F - 73.0 °F 84% 30.03 in 2.5 mi North - - 0.00 in Rain , Thunderstorm Rain
3:13 PM 78.1 °F - 73.0 °F 84% 30.04 in 0.5 mi ENE 9.2 mph - 0.03 in Rain , Thunderstorm Heavy Rain
3:16 PM 77.0 °F - 73.0 °F 88% 30.05 in 0.2 mi East 12.7 mph - 0.17 in Fog , Rain , Thunderstorm Heavy Rain
3:22 PM 75.9 °F - 73.9 °F 94% 30.05 in 0.2 mi Variable 4.6 mph - 0.64 in Fog , Rain , Thunderstorm Heavy Thunderstorms and Rain
3:24 PM 75.0 °F - 73.9 °F 96% 30.05 in 0.2 mi Variable 4.6 mph - 0.86 in Fog , Rain , Thunderstorm Heavy Thunderstorms and Rain
3:53 PM 73.9 °F - 71.1 °F 91% 30.05 in 0.5 mi Variable 4.6 mph - 2.96 in Fog , Rain , Thunderstorm Heavy Thunderstorms and Rain
4:11 PM 73.9 °F - 72.0 °F 93% 30.03 in 2.5 mi SE 4.6 mph - 0.40 in Rain , Thunderstorm Heavy Thunderstorms and Rain
4:15 PM 75.0 °F - 72.0 °F 90% 30.03 in 2.5 mi ESE 4.6 mph - 0.42 in Rain , Thunderstorm Heavy Rain
4:27 PM 75.0 °F - 73.0 °F 94% 30.02 in 4.0 mi East 3.5 mph - 0.46 in Rain , Thunderstorm Light Thunderstorms and Rain
4:53 PM 75.0 °F - 72.0 °F 90% 30.03 in 9.0 mi Calm Calm - 0.47 in Rain , Thunderstorm Light Thunderstorms and Rain
5:50 PM 75.2 °F - 73.4 °F 94% 30.03 in 6.0 mi WSW 5.8 mph - 0.07 in Rain Light Rain
5:53 PM 75.9 °F - 73.0 °F 91% 30.02 in 6.0 mi SW 4.6 mph - 0.07 in Rain , Thunderstorm Light Rain
6:53 PM 75.9 °F - 73.9 °F 94% 30.00 in 5.0 mi South 4.6 mph - 0.04 in Rain Light Rain
7:53 PM 75.9 °F - 73.9 °F 94% 29.99 in 10.0 mi SE 3.5 mph - 0.02 in   Mostly Cloudy
8:07 PM 75.9 °F - 73.9 °F 94% 30.00 in 10.0 mi Calm Calm - N/A   Mostly Cloudy
8:53 PM 75.9 °F - 73.9 °F 94% 30.00 in 10.0 mi Calm Calm - N/A   Clear
9:53 PM 75.9 °F - 73.9 °F 94% 30.01 in 9.0 mi Calm Calm - N/A   Clear
10:53 PM 75.9 °F - 73.9 °F 94% 30.02 in 8.0 mi ENE 5.8 mph - N/A   Mostly Cloudy
11:02 PM 75.9 °F - 73.9 °F 94% 30.02 in 7.0 mi NE 4.6 mph - N/A   Overcast
11:13 PM 75.9 °F - 73.9 °F 94% 30.03 in 7.0 mi NNW 5.8 mph - N/A   Overcast
11:43 PM 75.9 °F - 73.9 °F 94% 30.03 in 8.0 mi Calm Calm - N/A   Scattered Clouds
11:53 PM 75.0 °F - 73.9 °F 96% 30.02 in 8.0 mi East 5.8 mph - N/A   Clear